Simultaneous Nadir Overpasses (SNOs) Predictions

Prediction of SNOs between METOP-B and TERRA Satellite Orbit:

Table of predicted SNOs for the next 14.0 days since TLE Epoch: 6/26/2021
Index Date (METOP-B) Time (METOP-B) Lat,Lon (METOP-B) SZA (METOP-B ) Date (TERRA) Time (TERRA) Lat,Lon (TERRA) SZA (TERRA ) Distance(km) Time Diff (sec)
1 06/27/2021 22:42:03 81.26,-115.33 60.60 06/27/2021 22:42:13 81.27,-115.18 60.63 2.69 10
2 06/27/2021 23:32:43 -81.27, 52.50 119.34 06/27/2021 23:31:40 -81.26, 52.39 119.39 2.11 63
3 06/30/2021 17:25:47 -81.25, 143.43 119.30 06/30/2021 17:27:00 -81.25, 143.33 119.28 1.81 73
4 06/30/2021 18:16:27 81.25, -49.14 60.72 06/30/2021 18:16:26 81.25, -48.98 60.73 2.58 1
5 06/30/2021 19:06:59 -81.31, 121.83 118.84 06/30/2021 19:05:45 -81.41, 121.64 118.83 12.11 74
6 07/03/2021 13:00:10 -81.26,-149.99 119.09 07/03/2021 13:01:12 -81.26,-150.12 119.07 2.15 62
7 07/03/2021 13:50:50 81.26, 17.43 60.93 07/03/2021 13:50:38 81.26, 17.54 60.94 1.95 12
8 07/06/2021 08:34:33 -81.26, -83.43 118.82 07/06/2021 08:35:24 -81.26, -83.60 118.81 2.87 51
9 07/06/2021 09:25:12 81.26, 83.98 61.20 07/06/2021 09:24:49 81.26, 84.04 61.19 0.97 23
10 07/09/2021 04:08:56 -81.25, -17.28 118.55 07/09/2021 04:09:35 -81.26, -17.13 118.51 2.82 39



Historial Predications of SNOs between METOP-B and TERRA
